.
WxDataArchive / Data Records for 2014-12-19
2014-12-18 December 2014 2014-12-20

Data Records for Friday, 19 December 2014

Time	Temp	Chill	HIndex	Humid	Dewpt	 Wind 	HiWind	WindDir	Rain 	Barom
-----	----	-----	------	-----	-----	------	------	-------	-----	-----
00:00	27.5	27.5	27.5	80	22.2	0	1	292	0.00	30.239 
00:05	27.5	27.5	27.5	80	22.2	0	2	292	0.00	30.239 
00:10	27.5	27.5	27.5	80	22.2	0	2	292	0.00	30.239 
00:15	27.5	27.5	27.5	80	22.2	0	2	292	0.00	30.238 
00:20	27.5	27.5	27.5	80	22.2	0	1	292	0.00	30.238 
00:25	27.3	27.3	27.3	80	22.0	0	2	292	0.00	30.238 
00:30	27.3	27.3	27.3	80	22.0	0	1	292	0.00	30.240 
00:35	27.3	27.3	27.3	80	22.0	0	2	292	0.00	30.240 
00:40	27.3	27.3	27.3	80	22.0	0	1	292	0.00	30.240 
00:45	27.3	27.3	27.3	80	22.0	0	1	292	0.00	30.237 
00:50	27.3	27.3	27.3	80	22.0	0	2	292	0.00	30.237 
00:55	27.3	27.3	27.3	80	22.0	0	1	292	0.00	30.237 
01:00	27.3	27.3	27.3	81	22.3	0	1	292	0.00	30.236 
01:05	27.3	27.3	27.3	81	22.3	0	1	292	0.00	30.236 
01:10	27.3	27.3	27.3	81	22.3	0	2	292	0.00	30.236 
01:15	27.3	27.3	27.3	80	22.0	0	2	292	0.00	30.238 
01:20	27.3	27.3	27.3	81	22.3	0	1	292	0.00	30.238 
01:25	27.3	27.3	27.3	81	22.3	0	2	292	0.00	30.238 
01:30	27.3	27.3	27.3	81	22.3	0	3	315	0.00	30.237 
01:35	27.2	27.2	27.2	81	22.2	0	2	315	0.00	30.237 
01:40	27.2	27.2	27.2	80	21.9	0	2	315	0.00	30.237 
01:45	27.2	27.2	27.2	80	21.9	0	2	315	0.00	30.236 
01:50	27.2	27.2	27.2	80	21.9	0	1	315	0.00	30.236 
01:55	27.2	27.2	27.2	80	21.9	1	2	315	0.00	30.236 
02:00	27.2	27.2	27.2	80	21.9	1	2	315	0.00	30.236 
02:05	27.2	27.2	27.2	80	21.9	0	1	315	0.00	30.236 
02:10	27.2	27.2	27.2	80	21.9	1	3	315	0.00	30.236 
02:15	27.2	27.2	27.2	80	21.9	1	2	315	0.00	30.238 
02:20	27.2	27.2	27.2	80	21.9	0	2	315	0.00	30.238 
02:25	27.2	27.2	27.2	80	21.9	1	3	315	0.00	30.238 
02:30	27.2	27.2	27.2	79	21.6	1	3	270	0.00	30.247 
02:35	27.2	27.2	27.2	79	21.6	0	3	270	0.00	30.247 
02:40	27.2	27.2	27.2	79	21.6	1	3	270	0.00	30.247 
02:45	27.2	27.2	27.2	80	21.9	0	3	270	0.00	30.253 
02:50	27.2	27.2	27.2	80	21.9	1	2	270	0.00	30.253 
02:55	27.2	27.2	27.2	80	21.9	0	2	270	0.00	30.253 
03:00	27.2	27.2	27.2	80	21.9	0	2	270	0.00	30.253 
03:05	27.2	27.2	27.2	80	21.9	1	2	270	0.00	30.253 
03:10	27.0	27.0	27.0	80	21.7	0	3	248	0.00	30.253 
03:15	27.0	27.0	27.0	80	21.7	0	2	248	0.00	30.253 
03:20	27.0	27.0	27.0	80	21.7	0	2	248	0.00	30.253 
03:25	27.0	27.0	27.0	80	21.7	1	2	248	0.00	30.253 
03:30	27.0	27.0	27.0	80	21.7	0	2	248	0.00	30.251 
03:35	27.0	27.0	27.0	80	21.7	0	2	248	0.00	30.251 
03:40	27.0	27.0	27.0	80	21.7	0	2	248	0.00	30.251 
03:45	27.0	27.0	27.0	80	21.7	0	3	248	0.00	30.248 
03:50	27.0	27.0	27.0	80	21.7	0	2	248	0.00	30.248 
03:55	27.0	27.0	27.0	80	21.7	0	2	248	0.00	30.248 
04:00	27.0	27.0	27.0	80	21.7	0	1	248	0.00	30.250 
04:05	27.0	27.0	27.0	80	21.7	0	2	248	0.00	30.250 
04:10	27.0	27.0	27.0	80	21.7	0	2	248	0.00	30.250 
04:15	27.0	27.0	27.0	80	21.7	0	2	248	0.00	30.250 
04:20	27.0	27.0	27.0	80	21.7	0	1	248	0.00	30.250 
04:25	27.0	27.0	27.0	80	21.7	0	2	248	0.00	30.250 
04:30	27.0	27.0	27.0	81	22.0	0	1	248	0.00	30.250 
04:35	27.0	27.0	27.0	81	22.0	0	2	248	0.00	30.250 
04:40	26.9	26.9	26.9	81	21.9	1	3	248	0.00	30.250 
04:45	26.9	26.9	26.9	81	21.9	0	1	270	0.00	30.247 
04:50	26.9	26.9	26.9	81	21.9	0	2	270	0.00	30.247 
04:55	26.9	26.9	26.9	81	21.9	0	1	270	0.00	30.247 
05:00	26.9	26.9	26.9	81	21.9	0	1	270	0.00	30.249 
05:05	26.9	26.9	26.9	82	22.2	0	1	270	0.00	30.249 
05:10	26.9	26.9	26.9	82	22.2	0	1	270	0.00	30.249 
05:15	26.9	26.9	26.9	82	22.2	0	1	270	0.00	30.251 
05:20	26.9	26.9	26.9	82	22.2	0	1	270	0.00	30.251 
05:25	26.9	26.9	26.9	82	22.2	0	1	270	0.00	30.251 
05:30	26.9	26.9	26.9	82	22.2	0	2	270	0.00	30.254 
05:35	26.9	26.9	26.9	82	22.2	0	1	270	0.00	30.254 
05:40	26.9	26.9	26.9	82	22.2	0	3	270	0.00	30.254 
05:45	26.9	26.9	26.9	82	22.2	0	1	270	0.00	30.257 
05:50	26.9	26.9	26.9	81	21.9	0	1	270	0.00	30.257 
05:55	26.9	26.9	26.9	81	21.9	0	1	270	0.00	30.257 
06:00	26.9	26.9	26.9	81	21.9	0	1	270	0.00	30.263 
06:05	26.9	26.9	26.9	81	21.9	0	1	270	0.00	30.263 
06:10	26.9	26.9	26.9	82	22.2	0	1	270	0.00	30.263 
06:15	26.9	26.9	26.9	82	22.2	0	2	270	0.00	30.264 
06:20	26.9	26.9	26.9	82	22.2	0	2	270	0.00	30.264 
06:25	26.9	26.9	26.9	82	22.2	0	1	270	0.00	30.264 
06:30	26.7	26.7	26.7	82	22.0	0	1	270	0.00	30.266 
06:35	26.7	26.7	26.7	82	22.0	0	2	270	0.00	30.266 
06:40	26.7	26.7	26.7	83	22.2	0	1	270	0.00	30.266 
06:45	26.7	26.7	26.7	83	22.2	0	1	270	0.00	30.271 
06:50	26.7	26.7	26.7	83	22.2	0	1	270	0.00	30.271 
06:55	26.9	26.9	26.9	83	22.4	0	0	---	0.00	30.271 
07:00	26.7	26.7	26.7	83	22.2	0	1	270	0.00	30.272 
07:05	26.7	26.7	26.7	83	22.2	0	1	270	0.00	30.272 
07:10	26.9	26.9	26.9	83	22.4	0	1	270	0.00	30.272 
07:15	26.9	26.9	26.9	83	22.4	0	1	270	0.00	30.279 
07:20	26.9	26.9	26.9	83	22.4	0	0	---	0.00	30.279 
07:25	26.9	26.9	26.9	83	22.4	0	0	---	0.00	30.279 
07:30	26.9	26.9	26.9	83	22.4	0	1	270	0.00	30.281 
07:35	26.9	26.9	26.9	83	22.4	0	1	270	0.00	30.281 
07:40	26.9	26.9	26.9	83	22.4	0	2	270	0.00	30.281 
07:45	26.9	26.9	26.9	83	22.4	0	1	270	0.00	30.277 
07:50	26.9	26.9	26.9	83	22.4	0	1	270	0.00	30.277 
07:55	26.9	26.9	26.9	83	22.4	0	1	270	0.00	30.277 
08:00	26.9	26.9	26.9	83	22.4	0	1	270	0.00	30.279 
08:05	26.9	26.9	26.9	83	22.4	0	1	270	0.00	30.279 
08:10	26.9	26.9	26.9	83	22.4	0	2	270	0.00	30.279 
08:15	26.9	26.9	26.9	83	22.4	0	1	270	0.00	30.276 
08:20	26.9	26.9	26.9	83	22.4	0	1	270	0.00	30.276 
08:25	26.9	26.9	26.9	83	22.4	0	0	---	0.00	30.276 
08:30	26.9	26.9	26.9	84	22.7	0	1	270	0.00	30.285 
08:35	26.9	26.9	26.9	84	22.7	0	0	---	0.00	30.285 
08:40	26.9	26.9	26.9	84	22.7	0	1	270	0.00	30.285 
08:45	26.9	26.9	26.9	84	22.7	0	0	---	0.00	30.284 
08:50	26.9	26.9	26.9	84	22.7	0	0	---	0.00	30.284 
08:55	26.9	26.9	26.9	84	22.7	0	1	270	0.00	30.284 
09:00	26.9	26.9	26.9	84	22.7	0	1	270	0.00	30.278 
09:05	27.0	27.0	27.0	84	22.8	0	0	---	0.00	30.278 
09:10	27.0	27.0	27.0	84	22.8	0	0	---	0.00	30.278 
09:15	27.2	27.2	27.2	84	23.0	0	1	270	0.00	30.284 
09:20	27.5	27.5	27.5	84	23.3	0	1	270	0.00	30.284 
09:25	27.5	27.5	27.5	84	23.3	0	2	270	0.00	30.284 
09:30	27.5	27.5	27.5	84	23.3	0	1	270	0.00	30.277 
09:35	27.6	27.6	27.6	84	23.4	0	1	270	0.00	30.277 
09:40	27.8	27.8	27.8	83	23.3	0	1	270	0.00	30.277 
09:45	27.8	27.8	27.8	83	23.3	0	1	270	0.00	30.284 
09:50	27.8	27.8	27.8	83	23.3	0	1	270	0.00	30.284 
09:55	27.9	27.9	27.9	83	23.4	0	0	---	0.00	30.284 
10:00	28.2	28.2	28.2	83	23.7	0	1	270	0.00	30.285 
10:05	28.4	28.4	28.4	82	23.6	0	2	292	0.00	30.285 
10:10	28.4	28.4	28.4	82	23.6	0	1	292	0.00	30.285 
10:15	28.4	28.4	28.4	81	23.3	0	1	292	0.00	30.299 
10:20	28.4	28.4	28.4	81	23.3	0	2	292	0.00	30.299 
10:25	28.5	28.5	28.5	81	23.4	0	1	292	0.00	30.299 
10:30	28.5	28.5	28.5	81	23.4	0	1	292	0.00	30.303 
10:35	28.7	28.7	28.7	80	23.3	0	1	292	0.00	30.303 
10:40	28.8	28.8	28.8	80	23.4	0	1	292	0.00	30.303 
10:45	29.0	29.0	29.0	80	23.6	0	1	292	0.00	30.314 
10:50	29.1	29.1	29.1	80	23.7	0	1	292	0.00	30.314 
10:55	29.3	29.3	29.3	79	23.6	0	1	292	0.00	30.314 
11:00	29.4	29.4	29.4	79	23.7	0	1	292	0.00	30.312 
11:05	29.5	29.5	29.5	78	23.5	0	1	292	0.00	30.312 
11:10	29.7	29.7	29.7	77	23.4	0	1	292	0.00	30.312 
11:15	30.0	30.0	30.0	77	23.7	0	1	292	0.00	30.304 
11:20	30.0	30.0	30.0	76	23.4	0	1	292	0.00	30.304 
11:25	30.4	30.4	30.4	75	23.4	0	1	292	0.00	30.304 
11:30	30.4	30.4	30.4	74	23.1	0	2	292	0.00	30.297 
11:35	30.3	30.3	30.3	73	22.7	0	1	292	0.00	30.297 
11:40	30.3	30.3	30.3	73	22.7	0	1	292	0.00	30.297 
11:45	30.3	30.3	30.3	73	22.7	0	1	292	0.00	30.290 
11:50	30.3	30.3	30.3	72	22.4	0	1	292	0.00	30.290 
11:55	30.3	30.3	30.3	72	22.4	0	1	292	0.00	30.290 
12:00	30.3	30.3	30.3	73	22.7	0	2	292	0.00	30.283 
12:05	30.3	30.3	30.3	72	22.4	0	1	292	0.00	30.283 
12:10	30.3	30.3	30.3	72	22.4	0	1	292	0.00	30.283 
12:15	30.4	30.4	30.4	71	22.1	0	1	292	0.00	30.284 
12:20	30.6	30.6	30.6	73	23.0	0	3	292	0.00	30.284 
12:25	30.6	30.6	30.6	74	23.3	0	2	292	0.00	30.284 
12:30	30.4	30.4	30.4	75	23.4	0	3	68	0.00	30.284 
12:35	30.4	30.4	30.4	75	23.4	0	3	68	0.00	30.284 
12:40	30.4	30.4	30.4	76	23.8	1	3	68	0.00	30.284 
12:45	30.6	30.6	30.6	76	24.0	0	2	68	0.00	30.273 
12:50	30.4	30.4	30.4	75	23.4	0	1	68	0.00	30.273 
12:55	30.4	30.4	30.4	75	23.4	0	2	68	0.00	30.273 
13:00	30.4	30.4	30.4	75	23.4	0	2	68	0.00	30.270 
13:05	30.4	30.4	30.4	75	23.4	0	4	68	0.00	30.270 
13:10	30.4	30.4	30.4	75	23.4	0	2	68	0.00	30.270 
13:15	30.7	30.7	30.7	74	23.4	0	2	68	0.00	30.259 
13:20	30.9	30.9	30.9	73	23.3	0	2	68	0.00	30.259 
13:25	30.9	30.9	30.9	73	23.3	0	1	68	0.00	30.259 
13:30	31.0	31.0	31.0	73	23.4	0	1	68	0.00	30.251 
13:35	31.0	31.0	31.0	72	23.1	0	1	68	0.00	30.251 
13:40	30.9	30.9	30.9	71	22.6	0	2	68	0.00	30.251 
13:45	30.7	30.7	30.7	72	22.8	0	1	68	0.00	30.252 
13:50	30.6	30.6	30.6	71	22.3	0	3	68	0.00	30.252 
13:55	30.6	30.6	30.6	72	22.7	0	2	68	0.00	30.252 
14:00	30.7	30.7	30.7	72	22.8	0	2	68	0.00	30.252 
14:05	31.0	31.0	31.0	71	22.7	0	2	68	0.00	30.252 
14:10	31.0	31.0	31.0	71	22.7	0	3	68	0.00	30.252 
14:15	30.9	30.9	30.9	71	22.6	0	4	112	0.00	30.257 
14:20	30.7	30.7	30.7	71	22.4	0	1	112	0.00	30.257 
14:25	30.7	30.7	30.7	71	22.4	0	1	112	0.00	30.257 
14:30	30.7	30.7	30.7	71	22.4	0	3	112	0.00	30.267 
14:35	30.9	30.9	30.9	72	23.0	0	2	112	0.00	30.267 
14:40	31.0	31.0	31.0	71	22.7	1	3	112	0.00	30.267 
14:45	31.2	31.2	31.2	72	23.2	0	1	112	0.00	30.264 
14:50	31.3	31.3	31.3	71	23.0	1	3	112	0.00	30.264 
14:55	31.3	31.3	31.3	71	23.0	0	3	112	0.00	30.264 
15:00	31.3	31.3	31.3	72	23.3	0	5	112	0.00	30.263 
15:05	31.3	31.3	31.3	71	23.0	0	1	112	0.00	30.263 
15:10	31.3	31.3	31.3	71	23.0	1	6	112	0.00	30.263 
15:15	31.2	31.2	31.2	71	22.9	0	4	112	0.00	30.266 
15:20	31.2	31.2	31.2	71	22.9	0	2	112	0.00	30.266 
15:25	31.2	31.2	31.2	71	22.9	0	1	112	0.00	30.266 
15:30	31.0	31.0	31.0	71	22.7	0	1	112	0.00	30.266 
15:35	31.0	31.0	31.0	70	22.4	0	2	112	0.00	30.266 
15:40	30.9	30.9	30.9	71	22.6	0	1	112	0.00	30.266 
15:45	30.7	30.7	30.7	71	22.4	0	1	112	0.00	30.266 
15:50	30.7	30.7	30.7	71	22.4	0	4	112	0.00	30.266 
15:55	30.4	30.4	30.4	71	22.1	1	4	112	0.00	30.266 
16:00	30.4	30.4	30.4	70	21.8	1	3	112	0.00	30.268 
16:05	30.3	30.3	30.3	71	22.0	0	2	112	0.00	30.268 
16:10	30.4	30.4	30.4	71	22.1	1	3	112	0.00	30.268 
16:15	30.4	30.4	30.4	72	22.5	1	3	112	0.00	30.273 
16:20	30.4	30.4	30.4	72	22.5	1	3	112	0.00	30.273 
16:25	30.3	30.3	30.3	73	22.7	1	3	112	0.00	30.273 
16:30	30.3	30.3	30.3	73	22.7	1	5	112	0.00	30.280 
16:35	30.1	30.1	30.1	74	22.8	1	3	112	0.00	30.280 
16:40	30.0	30.0	30.0	74	22.7	1	4	112	0.00	30.280 
16:45	30.0	30.0	30.0	74	22.7	1	2	112	0.00	30.283 
16:50	29.8	29.8	29.8	74	22.5	1	3	112	0.00	30.283 
16:55	29.7	29.7	29.7	75	22.8	1	3	112	0.00	30.283 
17:00	29.7	29.7	29.7	75	22.8	0	2	112	0.00	30.292 
17:05	29.5	29.5	29.5	76	22.9	0	2	112	0.00	30.292 
17:10	29.4	29.4	29.4	76	22.8	0	1	112	0.00	30.292 
17:15	29.3	29.3	29.3	76	22.7	0	1	112	0.00	30.299 
17:20	29.1	29.1	29.1	77	22.8	0	1	112	0.00	30.299 
17:25	29.1	29.1	29.1	77	22.8	0	0	---	0.00	30.299 
17:30	29.0	29.0	29.0	77	22.7	0	1	112	0.00	30.312 
17:35	29.0	29.0	29.0	77	22.7	0	0	---	0.00	30.312 
17:40	29.0	29.0	29.0	78	23.0	0	0	---	0.00	30.312 
17:45	28.8	28.8	28.8	78	22.8	0	0	---	0.00	30.327 
17:50	28.7	28.7	28.7	78	22.7	0	0	---	0.00	30.327 
17:55	28.7	28.7	28.7	78	22.7	0	0	---	0.00	30.327 
18:00	28.5	28.5	28.5	78	22.5	0	0	---	0.00	30.329 
18:05	28.4	28.4	28.4	78	22.4	0	0	---	0.00	30.329 
18:10	28.1	28.1	28.1	78	22.1	0	0	---	0.00	30.329 
18:15	27.9	27.9	27.9	79	22.2	0	0	---	0.00	30.334 
18:20	27.8	27.8	27.8	79	22.2	0	0	---	0.00	30.334 
18:25	27.6	27.6	27.6	80	22.3	0	0	---	0.00	30.334 
18:30	27.3	27.3	27.3	80	22.0	0	0	---	0.00	30.332 
18:35	27.2	27.2	27.2	80	21.9	0	0	---	0.00	30.332 
18:40	27.0	27.0	27.0	81	22.0	0	0	---	0.00	30.332 
18:45	26.9	26.9	26.9	81	21.9	0	0	---	0.00	30.323 
18:50	26.7	26.7	26.7	82	22.0	0	0	---	0.00	30.323 
18:55	26.6	26.6	26.6	82	21.9	0	0	---	0.00	30.323 
19:00	26.4	26.4	26.4	82	21.7	0	0	---	0.00	30.319 
19:05	26.3	26.3	26.3	83	21.9	0	0	---	0.00	30.319 
19:10	26.1	26.1	26.1	84	21.9	0	0	---	0.00	30.319 
19:15	26.1	26.1	26.1	84	21.9	0	1	112	0.00	30.312 
19:20	26.1	26.1	26.1	84	21.9	0	1	112	0.00	30.312 
19:25	26.3	26.3	26.3	84	22.1	0	1	112	0.00	30.312 
19:30	26.1	26.1	26.1	84	21.9	0	0	---	0.00	30.303 
19:35	26.1	26.1	26.1	85	22.2	0	1	112	0.00	30.303 
19:40	26.0	26.0	26.0	84	21.8	0	0	---	0.00	30.303 
19:45	26.0	26.0	26.0	85	22.1	0	0	---	0.00	30.299 
19:50	25.8	25.8	25.8	85	21.9	0	1	112	0.00	30.299 
19:55	25.8	25.8	25.8	85	21.9	0	0	---	0.00	30.299 
20:00	25.7	25.7	25.7	84	21.5	0	0	---	0.00	30.301 
20:05	25.6	25.6	25.6	84	21.5	0	1	112	0.00	30.301 
20:10	25.6	25.6	25.6	84	21.5	0	0	---	0.00	30.301 
20:15	25.4	25.4	25.4	84	21.3	0	0	---	0.00	30.304 
20:20	25.3	25.3	25.3	84	21.2	0	0	---	0.00	30.304 
20:25	25.1	25.1	25.1	84	21.0	0	0	---	0.00	30.304 
20:30	24.8	24.8	24.8	84	20.7	0	0	---	0.00	30.306 
20:35	24.7	24.7	24.7	84	20.6	0	0	---	0.00	30.306 
20:40	24.5	24.5	24.5	84	20.4	0	0	---	0.00	30.306 
20:45	24.4	24.4	24.4	84	20.3	0	0	---	0.00	30.305 
20:50	24.2	24.2	24.2	84	20.1	0	0	---	0.00	30.305 
20:55	24.1	24.1	24.1	84	20.0	0	0	---	0.00	30.305 
21:00	23.9	23.9	23.9	85	20.1	0	0	---	0.00	30.304 
21:05	23.8	23.8	23.8	85	20.0	0	0	---	0.00	30.304 
21:10	23.6	23.6	23.6	85	19.8	0	0	---	0.00	30.304 
21:15	23.5	23.5	23.5	86	19.9	0	0	---	0.00	30.303 
21:20	23.5	23.5	23.5	86	19.9	0	0	---	0.00	30.303 
21:25	23.3	23.3	23.3	86	19.7	0	0	---	0.00	30.303 
21:30	23.3	23.3	23.3	86	19.7	0	0	---	0.00	30.305 
21:35	23.2	23.2	23.2	86	19.6	0	0	---	0.00	30.305 
21:40	23.2	23.2	23.2	86	19.6	0	0	---	0.00	30.305 
21:45	23.0	23.0	23.0	86	19.4	0	0	---	0.00	30.301 
21:50	23.0	23.0	23.0	86	19.4	0	0	---	0.00	30.301 
21:55	22.9	22.9	22.9	86	19.4	0	0	---	0.00	30.301 
22:00	22.7	22.7	22.7	86	19.2	0	0	---	0.00	30.301 
22:05	22.7	22.7	22.7	87	19.4	0	0	---	0.00	30.301 
22:10	22.7	22.7	22.7	87	19.4	0	0	---	0.00	30.301 
22:15	22.9	22.9	22.9	87	19.6	0	0	---	0.00	30.291 
22:20	22.9	22.9	22.9	87	19.6	0	0	---	0.00	30.291 
22:25	22.9	22.9	22.9	87	19.6	0	0	---	0.00	30.291 
22:30	22.7	22.7	22.7	87	19.4	0	0	---	0.00	30.288 
22:35	22.7	22.7	22.7	88	19.7	0	0	---	0.00	30.288 
22:40	22.7	22.7	22.7	88	19.7	0	0	---	0.00	30.288 
22:45	22.7	22.7	22.7	88	19.7	0	0	---	0.00	30.287 
22:50	22.7	22.7	22.7	88	19.7	0	0	---	0.00	30.287 
22:55	22.7	22.7	22.7	88	19.7	0	0	---	0.00	30.287 
23:00	22.5	22.5	22.5	88	19.5	0	0	---	0.00	30.287 
23:05	22.5	22.5	22.5	88	19.5	0	0	---	0.00	30.287 
23:10	22.5	22.5	22.5	88	19.5	0	0	---	0.00	30.287 
23:15	22.5	22.5	22.5	88	19.5	0	0	---	0.00	30.288 
23:20	22.5	22.5	22.5	88	19.5	0	0	---	0.00	30.288 
23:25	22.5	22.5	22.5	88	19.5	0	0	---	0.00	30.288 
23:30	22.5	22.5	22.5	88	19.5	0	0	---	0.00	30.289 
23:35	22.5	22.5	22.5	89	19.8	0	0	---	0.00	30.289 
23:40	22.5	22.5	22.5	89	19.8	0	0	---	0.00	30.289 
23:45	22.5	22.5	22.5	89	19.8	0	0	---	0.00	30.287 
23:50	22.5	22.5	22.5	89	19.8	0	0	---	0.00	30.287 
23:55	22.7	22.7	22.7	89	20.0	0	0	---	0.00	30.287 

CoCoRaHS
IN-AL-39
A2 Web Hosting
Creative Commons License
GoDaddy
search engine by freefind advanced

loaded 2018-11-20 03:50:45 • last modified 2010-11-18 10:43:29
Privacy PolicyDisclaimer
• wx.awcolley.com is powered by PmWiki v.2002016 •
• all content (unless otherwise noted) © 2018 A W Colley